Aurora, CO

3:33 AM MDT on September 26, 2016 (GMT -0600)
Denver International

Weather History for KDEN - September, 2014

Change the Weather History Date:

Saturday, September 20, 2014

  Actual Average Record
Temperature  
Mean Temperature 66 °F 62 °F  
Max Temperature 80 °F 77 °F 94 °F (2010)
Min Temperature 52 °F 47 °F 28 °F (1983)
Degree Days  
Heating Degree Days 0 5  
Month to date heating degree days 70 55  
Since 1 July heating degree days 77 71  
Cooling Degree Days 1 2  
Month to date cooling degree days 58 66  
Year to date cooling degree days 671 754  
Growing Degree Days 16 (Base 50)    
Moisture  
Dew Point 48 °F    
Average Humidity 54    
Maximum Humidity 77    
Minimum Humidity 30    
Precipitation  
Precipitation 0.00 in 0.03 in 0.74 in (1995)
Month to date precipitation 0.65 0.65  
Year to date precipitation 15.76 12.01  
Snow  
Snow 0.00 in - - ()
Month to date snowfall T  
Since 1 July snowfall T  
Since 1 September snowfall T  
Snow Depth 0.00 in    
Sea Level Pressure  
Sea Level Pressure 30.03 in    
Wind  
Wind Speed 7 mph (East)    
Max Wind Speed 16 mph    
Max Gust Speed 20 mph    
Visibility 10 miles    
Events      
T = Trace of Precipitation, MM = Missing Value Source: NWS Daily Summary

Daily Weather History Graph

Daily Weather History Graph

Search for Another Location

Airport or City:

Trip Planner

Search our weather history database for the weather conditions in past years. The results will help you decide how hot, cold, wet, or windy it might be!

Date:

Astronomy

Sep. 20, 2014 Rise Set
Actual Time 6:44 AM MDT 6:58 PM MDT
Civil Twilight 6:17 AM MDT 7:25 PM MDT
Nautical Twilight 5:45 AM MDT 7:57 PM MDT
Astronomical Twilight 5:13 AM MDT 8:29 PM MDT
Moon 3:26 AM MDT (9/20) 5:03 PM MDT (9/20)
Length of Visible Light 13h 08m
Length of Day
12h 14m
Waning Crescent, 11% of the Moon is Illuminated
Sep 20
Waning Crescent
Sep 24
New
Oct 1
First Quarter
Oct 8
Full
Oct 15
Last Quarter

Hourly Weather History & Observations

Time (MDT) Temp. Dew Point Humidity Pressure Visibility Wind Dir Wind Speed Gust Speed Precip Events Conditions
12:53 AM 64.0 °F 46.0 °F 52% 29.86 in 10.0 mi SW 9.2 mph - N/A   Partly Cloudy
1:53 AM 63.0 °F 46.0 °F 54% 29.86 in 10.0 mi WSW 8.1 mph - N/A   Partly Cloudy
2:53 AM 61.0 °F 46.0 °F 58% 29.89 in 10.0 mi SSW 9.2 mph - N/A   Partly Cloudy
3:53 AM 62.1 °F 46.0 °F 56% 29.88 in 10.0 mi SW 10.4 mph - N/A   Partly Cloudy
4:53 AM 61.0 °F 46.9 °F 60% 29.90 in 10.0 mi SW 9.2 mph - N/A   Partly Cloudy
5:53 AM 57.0 °F 46.9 °F 69% 29.94 in 10.0 mi West 3.5 mph - N/A   Partly Cloudy
6:53 AM 54.0 °F 46.0 °F 75% 30.00 in 10.0 mi NE 8.1 mph - N/A   Partly Cloudy
7:53 AM 60.1 °F 48.0 °F 64% 30.04 in 10.0 mi North 6.9 mph - N/A   Partly Cloudy
8:53 AM 62.1 °F 48.0 °F 60% 30.07 in 10.0 mi North 8.1 mph - N/A   Partly Cloudy
9:53 AM 64.0 °F 48.9 °F 58% 30.09 in 10.0 mi Calm Calm - N/A   Clear
10:53 AM 68.0 °F 48.9 °F 50% 30.10 in 10.0 mi Calm Calm - N/A   Partly Cloudy
11:53 AM 71.1 °F 48.9 °F 45% 30.06 in 10.0 mi Calm Calm - N/A   Partly Cloudy
12:53 PM 75.0 °F 48.9 °F 40% 30.04 in 10.0 mi Calm Calm - N/A   Partly Cloudy
1:53 PM 78.1 °F 46.9 °F 33% 30.01 in 10.0 mi ENE 11.5 mph 19.6 mph N/A   Partly Cloudy
2:53 PM 80.6 °F 46.4 °F 30% 30.24 in 10.0 mi ENE 8.1 mph - N/A   Partly Cloudy
3:53 PM 79.0 °F 45.0 °F 30% 30.01 in 10.0 mi ENE 8.1 mph - N/A   Partly Cloudy
4:53 PM 78.1 °F 44.1 °F 30% 30.02 in 10.0 mi NE 10.4 mph - N/A   Partly Cloudy
5:53 PM 77.0 °F 46.0 °F 33% 30.04 in 10.0 mi East 9.2 mph - N/A   Scattered Clouds
6:53 PM 70.0 °F 46.9 °F 44% 30.09 in 10.0 mi ENE 9.2 mph - N/A   Mostly Cloudy
7:53 PM 64.9 °F 48.0 °F 54% 30.11 in 10.0 mi ENE 6.9 mph - N/A   Mostly Cloudy
8:53 PM 63.0 °F 50.0 °F 63% 30.14 in 10.0 mi East 5.8 mph - N/A   Mostly Cloudy
9:53 PM 63.0 °F 50.0 °F 63% 30.15 in 10.0 mi South 9.2 mph - N/A   Mostly Cloudy
11:53 PM 62.1 °F 52.0 °F 70% 30.13 in 10.0 mi SSW 4.6 mph - N/A   Scattered Clouds